sat.trackr.live / text

‹ back to catalog

STARLINK-31122

NORAD 58774 · 2024-011K

PAYLOAD ACTIVE UNKNOWN

§ Identity

Operator
Country
US
Launch date
2024-01-14
Launch site
AFWTR
Launch vehicle
Mass (kg)
RCS (m²)

Purposes: comms

External: N2YO · Heavens-Above · Gunter

§ Orbital elements

Epoch: 2026-09-20T07:21:51.735456Z

Period
93.85 min
Inclination
53.1625°
Eccentricity
0.0001061
Mean motion
15.34392010 rev/d
Perigee alt
462.0 km
Apogee alt
463.5 km
Semi-major
6,840.9 km
B*
4.4910e-5
RAAN
188.5154°
Arg perigee
120.5620°
Mean anomaly
239.5488°
Rev number
15,008

§ Raw data

STARLINK-311221 58774U 24011K   26263.30684879  .00001141  00000+0  44910-4 0  99912 58774  53.1625 188.5154 0001061 120.5620 239.5488 15.34392010150082

JSON: /api/v1/satellites/58774 · /tle

For live sub-satellite position, see the globe view (requires WebGL).

§ Visibility from observer

Set your observer location to see the next 7 days of passes ≥ 10°. The values pass through the URL so the page stays shareable.

No JS? Fill the form by hand. The geolocation button needs JavaScript.